Weather History for Taunton, MA

Change the Weather History Date:

Thursday, April 4, 2013

  Actual Average Record
Temperature  
Mean Temperature 41 °F -  
Max Temperature 53 °F 52 °F 66 °F (1950)
Min Temperature 30 °F 33 °F 15 °F (1954)
Degree Days  
Heating Degree Days 24    
Moisture  
Dew Point 18 °F    
Average Humidity 43    
Maximum Humidity 70    
Minimum Humidity 23    
Precipitation  
Precipitation 0.00 in - - ()
Sea Level Pressure  
Sea Level Pressure 30.20 in    
Wind  
Wind Speed 8 mph (WSW)    
Max Wind Speed 14 mph    
Max Gust Speed 21 mph    
Visibility 10 miles    
Events      
Averages and records for this station are not official NWS values.
T = Trace of Precipitation, MM = Missing Value Source: NWS Daily Summary

Daily Weather History Graph

Daily Weather History Graph

Search for Another Location

Airport:

Trip Planner

Search our weather history database for the weather conditions in past years. The results will help you decide how hot, cold, wet, or windy it might be!

Date:

Astronomy

Apr. 04, 2013 Rise Set
Actual Time 6:21 AM EDT 7:13 PM EDT
Civil Twilight 5:53 AM EDT 7:41 PM EDT
Nautical Twilight 5:19 AM EDT 8:15 PM EDT
Astronomical Twilight 4:44 AM EDT 8:50 PM EDT
Moon 2:51 AM EDT (4/4) 1:23 PM EDT (4/4)
Length of Visible Light 13h 48m
Length of Day
12h 51m
Waning Crescent, 34% of the Moon is Illuminated
Apr 4
Waning Crescent
Apr 10
New
Apr 18
First Quarter
Apr 25
Full
May 2
Last Quarter

Hourly Weather History & Observations

Time (EDT) Temp. Windchill Dew Point Humidity Pressure Visibility Wind Dir Wind Speed Gust Speed Precip Events Conditions
12:52 AM 34.0 °F 26.0 °F 12.0 °F 40% 30.20 in 10.0 mi West 10.4 mph - N/A   Clear
1:52 AM 33.1 °F 27.7 °F 12.9 °F 43% 30.20 in 10.0 mi WNW 5.8 mph - N/A   Clear
2:52 AM 32.0 °F 25.6 °F 12.9 °F 45% 30.20 in 10.0 mi West 6.9 mph - N/A   Clear
3:52 AM 30.9 °F 24.3 °F 12.9 °F 47% 30.20 in 10.0 mi WNW 6.9 mph - N/A   Clear
4:52 AM 30.9 °F 27.5 °F 12.9 °F 47% 30.20 in 10.0 mi NW 3.5 mph - N/A   Clear
5:52 AM 30.0 °F 25.2 °F 14.0 °F 51% 30.24 in 10.0 mi West 4.6 mph - N/A   Clear
6:52 AM 30.9 °F 24.3 °F 15.1 °F 52% 30.29 in 10.0 mi West 6.9 mph - N/A   Clear
7:52 AM 34.0 °F 29.8 °F 15.1 °F 46% 30.30 in 10.0 mi West 4.6 mph - N/A   Clear
8:52 AM 37.9 °F 33.5 °F 15.1 °F 39% 30.31 in 10.0 mi WNW 5.8 mph - N/A   Clear
9:52 AM 41.0 °F 36.4 °F 12.9 °F 32% 30.30 in 10.0 mi Variable 6.9 mph - N/A   Clear
10:52 AM 45.0 °F 42.6 °F 12.0 °F 26% 30.28 in 10.0 mi Variable 4.6 mph - N/A   Clear
11:52 AM 46.9 °F - 12.0 °F 24% 30.25 in 10.0 mi Calm Calm - N/A   Clear
12:52 PM 51.1 °F - 14.0 °F 23% 30.23 in 10.0 mi West 10.4 mph - N/A   Clear
1:52 PM 51.1 °F - 14.0 °F 23% 30.22 in 10.0 mi SSW 9.2 mph 20.7 mph N/A   Clear
2:52 PM 51.1 °F - 19.0 °F 28% 30.19 in 10.0 mi SW 13.8 mph 19.6 mph N/A   Clear
3:52 PM 52.0 °F - 23.0 °F 32% 30.15 in 10.0 mi SSW 13.8 mph 19.6 mph N/A   Clear
4:52 PM 51.1 °F - 19.9 °F 29% 30.13 in 10.0 mi SSW 13.8 mph 18.4 mph N/A   Clear
5:52 PM 48.0 °F - 21.9 °F 36% 30.12 in 10.0 mi South 9.2 mph 20.7 mph N/A   Clear
6:52 PM 44.1 °F 37.4 °F 25.0 °F 47% 30.12 in 10.0 mi SSW 13.8 mph 20.7 mph N/A   Clear
7:52 PM 41.0 °F 34.3 °F 23.0 °F 49% 30.14 in 10.0 mi SW 11.5 mph 19.6 mph N/A   Clear
8:52 PM 39.9 °F 33.9 °F 27.0 °F 60% 30.15 in 10.0 mi SSW 9.2 mph 20.7 mph N/A   Clear
9:52 PM 39.9 °F 33.4 °F 28.9 °F 65% 30.13 in 10.0 mi SSW 10.4 mph 17.3 mph N/A   Clear
10:52 PM 39.9 °F 34.5 °F 30.0 °F 68% 30.11 in 10.0 mi SSW 8.1 mph - N/A   Clear
11:52 PM 39.9 °F 33.4 °F 30.9 °F 70% 30.09 in 10.0 mi SSW 10.4 mph - N/A   Clear